EWS-G1 (GOES 13) 1 29155U 06018A 21062.87063117 .00000026 00000-0 00000-0 0 9999 2 29155 0.3832 275.7685 0003623 333.3449 287.7899 1.00270183 24001 DELTA 4 R/B 1 29156U 06018B 21062.52968911 .00000063 00000-0 00000-0 0 9999 2 29156 11.8565 125.7543 5268540 327.4067 162.4027 1.93074579104166